User: anonymous   Login
Location: Unspecified
(0.0000°N, 0.0000°E)
Time: 11:07:33
(UTC+00:00)
Language:

OBJECT B - Orbit

View from above orbital plane
View from above orbital plane
View from above satellite
View from above satellite

Ground track
Ground track

The orbit is defined by the following mean orbital elements,

1 66413U          26145.38430381 +.00000000 +00000-0 +91540-4 0 00004
2 66413  50.0029  17.6568 0001060  57.8862 302.2113 13.29323167    03
Epoch (UTC): 25 May 2026 09:13:23
Eccentricity: 0.0001060
inclination: 50.0029°
perigee height: 1149 km
apogee height: 1150 km
right ascension of ascending node: 17.6568°
argument of perigee: 57.8862°
revolutions per day: 13.29323167
mean anomaly at epoch: 302.2113°

The dashed part of the orbit path shows where the satellite is in the earth's shadow,  

DLR